World > North America > United States > California   City of Oakland, CA

Oakland, California Regional Weather

Lat: 37.77N, Lon: 122.22W
Wx Zone: CAZ508
Feedback

Oakland, CA Regional Weather

Expires:202002260400;;099675
ASUS46 KSTO 260315
RWRCA 

NORTHERN AND CENTRAL CA REGIONAL WEATHER ROUNDUP
NATIONAL WEATHER SERVICE SACRAMENTO CA 
700 PM PST TUE FEB 25 2020

NOTE: FAIR INDICATES FEW OR NO CLOUDS BELOW 12,000 FEET WITH NO
SIGNIFICANT WEATHER AND/OR OBSTRUCTIONS TO VISIBILITY.


CAZ006-505>513-260400-
BAY AREA
  
CITY           SKY/WX    TMP DP  RH WIND       PRES   REMARKS
SANTA ROSA     CLEAR     63  43  48 S5        30.24R                  
SAN RAFAEL     N/A       MM  MM  MM MISG
NAPA           CLEAR     55  41  59 E5        30.24R                  
CONCORD        CLEAR     62  40  44 N6        30.24R                  
OAKLAND CITY   N/A       71  MM  MM MISG
OAKLAND        PTCLDY    67  37  33 NW6       30.25R                  
SAN FRAN CITY  N/A       67  MM  29 MISG
SAN FRAN ARPT  PTCLDY    65  33  30 W10       30.24R                  
LIVERMORE      CLEAR     59  35  40 NE5       30.25R                  
HAYWARD        CLEAR     64  38  38 SW3       30.24R                  
SAN JOSE ARPT  PTCLDY    64  39  39 W6        30.24R                  
$$

SKY/WX - Weather  TMP - Temperature  DP - Dew Point  RH - Relative Humidity
WIND - Wind Direction/Speed PRES - Barometric Pressure VSB - Visibility
WCI - Wind Chill Index E13G22 Wind - East Wind 13 mph/Gusts of 22 mph
Oakland Weather Map
What is UTC time?